Regional Weather Roundup
Issued by NWS Kansas City/Pleasant Hill, MO

Home | Current Version | Previous Version | Graphics & Text | Print | Product List | Glossary Off
Versions: 1 2 3 4 5 6 7 8 9 10 11 12 13 14 15 16 17 18 19 20 21 22 23 24 25 26 27

000
ASUS43 KEAX 280310
RWREAX

WEATHER ROUNDUP FOR EASTERN KANSAS AND NORTHWEST MISSOURI
NATIONAL WEATHER SERVICE KANSAS CITY/PLEASANT HILL MO
1000 PM CDT FRI MAY 27 2016

KSZ040-057-103>105-MOZ028-029-037-043-280400-
...KANSAS CITY METROPOLITAN AREA...

CITY           SKY/WX    TMP DP  RH WIND       PRES   REMARKS
K.C. INTL      CLOUDY    64  57  78 NW13G20   29.76R
K.C. DOWNTOWN  PTCLDY    68  65  90 W3        29.73S
LEES SUMMIT    CLOUDY    70  64  81 S8        29.75R
OLATHE - IXD   LGT RAIN  61  58  90 NW14      29.77R
OLATHE - OJC   CLOUDY    63  58  83 W15G22    29.77R
LAWRENCE       LGT RAIN  61  58  90 W6        29.75S

$$

MOZ001>008-011>017-020>025-030>033-038>040-044>046-053-054-280400-
...NORTHERN AND CENTRAL MISSOURI...

CITY           SKY/WX    TMP DP  RH WIND       PRES   REMARKS
ST. JOSEPH     LGT RAIN  62  57  83 W17G25    29.76R
MOSBY          CLOUDY    68  63  83 CALM      29.74S
WARRENSBURG    CLOUDY    68  64  88 CALM      29.76R
WHITEMAN AFB   MOCLDY    70  69  98 S3        29.75R
CLINTON        CLOUDY    66  66 100 SE3       29.76R
SEDALIA        CLOUDY    72  68  87 S7        29.78R
WARSAW         NOT AVBL
CHILLICOTHE      N/A     67  66  97 NW3       29.77R
KIRKSVILLE     LGT RAIN  64  63  96 CALM      29.77S

$$

MOZ041-047>049-056>058-063>065-088>090-097-280400-
...EASTERN AND SOUTHERN MISSOURI...

CITY           SKY/WX    TMP DP  RH WIND       PRES   REMARKS
ST. LOUIS INTL CLOUDY    72  67  84 S10       29.83R
SPIRIT OF STL  CLOUDY    71  67  87 CALM      29.81R
COLUMBIA       CLOUDY    69  67  93 S8        29.78R
JEFFERSON CITY CLOUDY    70  67  90 E5        29.78R
ROLLA          CLOUDY    68  65  90 S12       29.80R
SPRINGFIELD    PTCLDY    70  65  84 S9        29.79R
JOPLIN         CLOUDY    71  65  81 S14       29.79R
WEST PLAINS    CLOUDY    70  65  84 S13       29.86R

$$

IAZ060-094-KSZ022-034>040-054-083-096-NEZ052-066-093-280400-
...KANSAS...SOUTHEAST NEBRASKA AND IOWA...

CITY           SKY/WX    TMP DP  RH WIND       PRES   REMARKS
TOPEKA         CLOUDY    62  58  86 VRB5      29.74R
MANHATTAN      CLOUDY    61  57  87 N5        29.69R
EMPORIA        LGT RAIN  60  58  92 E8        29.74R
CHANUTE        CLOUDY    61  58  90 E8        29.76F
WICHITA        PTCLDY    62  58  86 SE9       29.68R
OMAHA          CLOUDY    72  62  71 SE12      29.71R
LINCOLN        HVY RAIN  60  57  89 W13       29.76R FOG
FALLS CITY     LGT RAIN  62  58  86 W3        29.76R
LAMONI         LGT RAIN  66  64  93 E5        29.76R
DES MOINES     LGT RAIN  71  64  78 SE8       29.76R

$$





USA.gov is the U.S. government's official web portal to all federal, state and local government web resources and services.